Wind_Speed
10 11 12 15 16 17 21 22 20 21 22 22 21 19 17 17 16 14 12 13 15 16 16 16 16 16 16 16 17 18 18 17 17 17 17 15 14 14 15 15 15 13 12 12 11 9 9 8 7 8 8 9 10 11 11 11 10 10 8 6 6 7 9 8 4 3 8 10 12 15 15 13 12 10 8 6 5 4 4 4 4 2 2 2 2
13 13 13 16 17 18 21 21 19 20 23 24 22 20 18 16 15 15 14 13 13 16 17 17 17 17 17 18 18 18 19 19 19 18 18 17 16 16 16 16 16 14 12 11 9 8 8 8 7 7 9 10 10 10 11 11 11 11 9 8 9 10 10 10 7 5 7 10 12 14 15 14 12 11 9 6 6 5 4 4 4 2 1 1 2
12 11 12 14 16 16 18 19 21 22 24 25 23 20 19 18 16 16 15 14 13 14 17 18 18 19 18 18 18 19 19 20 20 20 19 19 19 19 18 17 16 15 13 11 8 7 8 8 7 8 11 12 11 11 11 12 12 12 11 11 11 11 11 10 9 8 9 11 12 15 16 14 12 12 10 8 7 5 4 4 4 3 2 2 3
12 10 11 13 16 17 16 18 22 23 23 24 23 20 19 20 19 19 17 16 15 15 16 17 19 19 20 19 18 18 18 18 18 19 18 19 20 20 20 18 17 15 13 11 9 8 9 8 7 10 13 13 12 11 11 12 12 13 13 13 13 12 12 12 10 9 11 11 12 14 16 15 13 12 12 10 8 5 4 4 4 4 3 4 4
13 10 8 9 12 13 12 13 18 20 21 23 22 20 19 18 19 19 19 18 17 16 17 17 19 20 20 20 19 18 18 17 17 18 18 18 19 20 20 18 17 15 14 12 11 11 11 9 8 12 15 14 12 12 12 12 12 13 14 14 13 12 12 13 11 10 13 14 14 14 14 15 14 13 13 11 9 7 5 4 4 4 5 5 4
12 10 7 5 6 7 8 9 12 15 17 19 20 20 19 17 16 17 19 20 19 18 18 18 19 20 20 21 21 21 19 18 18 18 18 18 18 20 20 19 17 16 15 14 14 13 12 9 10 14 16 15 13 12 12 13 13 13 13 13 13 12 13 14 12 11 14 15 15 15 15 16 15 15 15 12 10 9 7 5 5 5 5 5 3
14 12 9 6 3 1 3 5 7 9 11 13 14 16 17 18 18 17 18 19 20 20 20 21 21 21 20 21 21 22 21 20 20 19 19 19 19 20 20 20 19 19 18 17 16 15 13 13 14 16 15 14 13 13 12 13 13 13 12 12 12 13 14 15 13 13 15 15 14 16 17 16 15 15 16 14 11 9 8 8 7 7 6 4 3
18 16 14 12 9 5 2 1 4 6 8 9 10 11 12 14 16 17 17 18 19 20 20 21 22 23 23 22 22 22 22 22 21 21 20 20 20 21 22 22 22 22 22 21 20 18 18 17 17 16 15 14 13 13 12 12 12 12 12 13 13 14 16 16 14 14 17 16 15 16 17 16 15 15 15 15 14 11 10 9 8 8 7 4 3
19 19 18 16 14 10 8 5 3 2 4 6 8 9 10 11 12 15 16 17 18 19 20 20 22 23 24 25 24 24 23 23 22 22 22 22 22 22 23 23 24 24 24 24 23 22 21 21 20 18 17 15 14 13 12 11 11 11 12 14 15 16 17 16 15 16 18 17 16 16 16 16 16 16 16 18 17 14 12 11 9 8 7 4 4
19 20 19 18 16 15 13 11 9 7 4 3 5 6 7 9 10 12 14 16 17 18 19 19 20 22 23 25 25 25 25 25 24 23 23 23 23 23 24 24 24 24 24 24 24 23 23 23 21 19 18 16 15 14 13 12 12 11 12 13 16 18 18 17 17 19 19 19 18 17 16 16 18 19 19 19 18 15 12 11 9 9 8 5 4
19 20 19 17 17 16 16 15 14 12 10 8 6 6 6 7 9 10 11 14 15 16 17 17 18 20 22 23 25 26 26 27 26 25 24 24 24 25 25 25 25 24 24 25 24 24 24 23 22 21 19 18 17 16 15 14 13 12 12 13 16 19 20 19 20 21 20 19 19 20 19 19 21 21 20 18 17 15 14 12 10 10 10 6 4
18 18 17 17 17 17 16 15 15 14 13 12 10 8 7 7 7 8 9 11 13 15 16 16 17 18 20 22 24 25 27 27 27 27 27 26 25 26 27 26 26 26 25 25 25 24 24 24 23 22 21 20 18 17 16 15 14 13 14 14 16 18 20 21 21 22 22 21 20 22 22 21 21 21 20 18 17 16 15 13 11 11 11 7 5
16 17 16 17 17 17 16 16 15 15 14 13 12 11 10 9 8 8 9 9 10 13 15 16 17 18 19 21 23 25 27 27 27 27 28 28 27 27 28 28 27 27 26 26 26 25 25 24 24 23 22 21 20 19 18 17 15 15 15 16 17 18 20 21 21 21 23 23 23 24 23 22 21 19 19 18 18 17 16 15 14 12 11 8 6
16 16 16 17 17 17 17 16 16 15 15 14 14 13 12 11 10 10 9 9 10 11 13 14 16 17 18 20 22 25 26 27 28 28 28 28 28 28 29 29 29 28 27 27 27 27 26 25 25 24 23 22 22 22 21 19 17 17 17 18 19 20 21 22 22 22 22 23 24 23 22 21 20 17 16 17 18 18 17 17 16 14 12 9 6
15 15 15 16 16 17 16 16 16 16 16 16 16 15 14 13 13 12 11 10 10 11 11 13 14 15 16 19 21 24 26 26 27 27 28 28 28 28 29 30 30 29 29 28 28 28 28 27 26 25 24 23 23 23 22 21 20 19 19 20 21 22 22 23 23 23 23 23 24 22 20 20 18 15 14 15 16 17 17 17 15 14 12 9 7
13 13 13 14 14 15 16 15 15 15 16 16 17 17 16 15 14 13 12 11 11 11 11 12 13 14 15 17 20 23 25 26 26 27 28 29 28 28 29 30 30 30 30 31 30 29 29 29 28 27 26 25 24 23 23 22 22 21 21 21 21 22 24 23 22 23 23 23 22 21 19 18 17 14 13 13 14 16 17 16 14 14 13 11 9
10 10 11 11 12 13 13 14 13 14 14 15 17 18 17 15 15 14 13 12 11 12 12 13 13 13 14 15 17 21 24 24 26 27 28 29 28 28 29 31 31 31 31 32 32 31 30 30 29 28 28 27 25 24 23 23 23 23 22 22 21 22 24 24 23 22 22 22 22 21 20 19 17 14 12 11 12 15 18 18 16 17 16 12 10
6 7 8 9 10 11 11 12 12 12 12 13 14 16 16 16 16 15 14 13 12 12 12 12 13 13 14 14 15 18 21 22 23 25 27 27 28 28 29 31 32 32 31 32 33 33 32 31 30 30 29 28 26 25 24 24 24 24 23 23 23 23 25 25 24 24 23 23 23 22 22 21 19 15 13 12 13 15 17 18 18 19 19 15 12
2 3 4 5 7 8 10 11 11 11 11 11 12 14 15 15 16 16 15 14 14 13 12 12 12 13 14 15 15 16 18 20 21 24 26 26 26 27 28 29 30 30 31 31 32 33 33 33 31 31 30 29 28 26 25 25 25 25 24 24 24 26 27 26 26 25 25 24 24 24 24 22 19 16 14 13 14 15 16 17 18 20 21 18 14
2 1 1 2 4 5 7 9 10 11 11 11 11 12 12 13 16 17 17 16 16 15 14 12 13 14 14 15 15 16 18 19 20 22 24 26 26 26 27 28 29 29 30 30 30 30 32 33 33 33 31 30 29 28 27 26 26 25 25 26 27 28 27 26 26 26 25 25 25 25 24 22 20 17 16 15 15 16 16 17 18 19 19 18 17
6 5 4 3 3 4 5 7 8 10 11 11 11 12 12 13 14 16 17 18 17 17 16 14 14 14 15 15 16 16 17 19 20 20 22 24 25 25 27 28 29 30 30 29 28 29 31 33 35 35 33 31 30 29 29 28 26 26 26 27 28 27 25 24 25 25 25 24 24 23 23 22 20 19 19 18 18 18 18 19 19 19 18 16 16
10 9 9 7 6 6 6 7 8 8 9 10 10 11 13 14 14 15 16 17 17 18 17 16 15 15 16 15 16 17 17 18 20 20 21 22 23 25 27 30 31 30 29 28 29 30 32 34 36 37 36 34 32 31 30 29 27 27 27 26 25 24 23 22 22 24 25 24 23 23 23 22 22 22 21 20 20 20 20 19 19 19 18 16 14
14 14 13 12 11 10 9 9 9 10 10 10 10 11 11 13 14 16 16 17 17 17 17 16 15 16 16 16 17 18 18 18 19 21 21 21 22 24 26 29 30 30 30 31 31 31 32 34 36 36 35 35 34 32 30 29 29 28 27 25 24 23 22 20 20 23 25 25 24 24 24 24 24 24 24 23 22 21 20 19 19 20 19 17 16
14 15 16 16 15 15 13 12 12 13 13 12 12 11 11 11 12 14 16 16 17 17 17 17 15 15 17 18 18 18 19 19 20 21 21 21 22 24 25 26 27 29 32 34 33 31 32 34 35 34 34 35 35 33 31 29 29 29 28 26 24 22 21 21 21 22 24 25 25 26 26 27 27 27 26 24 22 21 20 19 20 21 21 19 18
12 14 16 18 18 18 18 17 17 17 16 16 15 14 12 11 10 12 14 15 15 16 17 17 16 15 16 18 20 21 21 21 21 21 20 21 22 24 25 25 26 28 31 34 34 32 32 34 33 32 33 33 33 31 30 28 28 28 28 27 25 23 22 22 22 23 24 25 26 27 28 29 28 27 26 24 22 21 20 21 23 23 23 21 20
11 13 15 17 18 18 20 21 21 21 20 19 18 17 15 13 11 10 11 13 15 15 16 17 16 16 16 18 20 22 23 22 22 21 20 20 22 23 25 25 25 26 29 32 34 33 33 33 31 29 30 30 30 29 29 28 27 28 29 29 27 25 24 25 25 25 26 27 27 28 29 28 28 27 25 24 23 22 22 23 25 25 24 22 21
13 14 14 15 16 17 19 21 23 24 25 24 23 21 19 16 14 12 11 12 14 15 17 17 16 16 17 18 19 21 23 23 23 21 20 20 22 23 24 25 25 26 28 31 34 34 32 30 27 26 27 28 28 28 29 28 27 28 30 31 30 28 27 27 27 27 27 28 28 28 27 26 26 26 26 25 24 23 23 24 25 24 23 22 20
16 16 16 16 16 17 19 21 23 26 28 28 28 27 25 21 18 17 16 15 14 16 18 18 18 17 18 18 19 20 22 23 24 23 21 21 22 23 25 25 26 27 28 30 32 34 31 27 25 26 26 26 26 27 29 28 27 28 32 34 33 31 29 27 26 27 27 27 27 26 25 24 25 25 25 25 24 24 24 25 24 23 22 21 19
19 20 19 19 19 19 20 22 23 26 29 31 32 33 31 28 25 24 22 19 17 17 19 20 21 21 21 20 19 18 20 24 26 26 24 23 23 24 25 26 27 28 28 29 31 28 23 20 22 25 26 25 25 26 28 29 29 29 32 34 33 32 30 28 28 28 28 27 27 25 24 24 24 24 25 26 25 25 25 25 24 22 21 20 19
22 23 22 22 21 21 22 23 24 26 29 31 33 34 34 32 29 27 25 23 21 20 20 22 23 23 24 24 23 22 24 27 30 31 30 28 27 27 27 28 28 28 28 28 26 21 18 19 24 26 26 26 26 28 30 31 30 30 31 33 33 32 32 31 31 31 29 28 28 26 25 25 26 26 27 27 27 26 25 24 23 23 22 21 21
23 23 23 23 23 23 23 24 25 27 29 30 30 31 33 34 33 30 27 25 24 24 24 24 24 23 25 27 28 28 28 29 31 33 34 32 31 30 29 29 28 28 27 26 21 20 22 24 27 27 27 26 27 29 32 32 31 30 31 32 33 33 33 33 33 32 30 29 29 28 27 28 28 28 29 29 28 27 26 24 22 22 22 22 22
24 24 25 25 26 25 25 25 25 26 28 29 29 28 28 29 30 30 28 26 26 27 27 26 26 25 25 27 28 30 30 30 30 32 33 33 32 32 31 30 29 28 27 24 21 23 26 28 28 27 27 27 28 30 32 32 32 31 31 32 32 33 34 35 34 32 31 30 30 30 29 29 30 30 30 30 29 27 25 24 23 22 22 22 22
27 27 27 26 26 27 27 26 26 27 27 28 29 28 26 24 24 26 27 27 28 28 28 28 28 28 27 27 28 30 31 30 30 31 32 31 32 32 32 31 30 29 25 22 22 24 27 29 28 28 28 29 31 31 31 32 32 32 32 33 34 35 35 35 32 31 32 33 33 32 31 31 31 31 30 29 27 25 24 24 23 22 22 22 22
29 29 29 27 27 27 27 27 27 28 28 29 29 29 28 27 26 25 24 24 25 27 29 29 28 28 29 29 30 30 31 31 31 31 30 29 30 31 32 31 29 27 23 22 24 26 27 28 28 28 29 31 31 31 31 32 32 32 32 34 35 35 34 32 30 31 33 34 33 32 32 31 30 29 27 26 25 24 24 24 23 23 23 22 21
29 30 30 29 28 28 28 29 29 29 29 29 29 29 30 30 30 28 25 23 22 24 27 28 27 28 30 32 32 32 31 31 31 31 30 28 27 28 28 27 25 22 21 22 25 27 28 29 28 28 29 31 32 32 32 32 32 33 34 34 33 32 31 30 31 32 35 34 33 33 32 31 31 30 28 26 25 25 24 24 24 24 23 22 21
29 29 29 29 29 29 30 31 31 30 30 30 31 31 31 31 30 29 28 26 24 25 26 28 28 28 30 33 34 33 31 31 31 30 28 27 26 25 24 24 24 22 22 25 27 27 28 29 29 28 29 30 31 33 33 33 33 34 35 34 33 31 31 32 33 34 35 35 35 35 33 32 31 31 29 27 27 27 26 25 24 24 23 21 21
29 28 28 28 28 28 29 30 31 31 32 32 32 31 30 30 30 29 28 27 26 25 25 26 26 26 28 31 32 30 28 28 28 27 25 24 24 24 24 25 26 24 23 25 28 29 28 29 30 30 30 31 32 33 33 33 33 32 32 32 33 33 33 33 34 35 36 35 34 34 33 32 31 30 29 27 27 26 25 25 24 23 22 21 19
29 29 29 29 28 28 28 28 29 30 31 31 31 30 29 29 29 28 27 27 26 25 24 24 24 25 27 29 28 25 23 24 24 23 22 22 23 23 24 27 28 27 26 27 30 31 30 29 30 31 31 32 33 33 33 31 30 30 30 31 32 32 32 33 33 34 35 34 33 33 33 32 31 30 29 28 27 26 25 25 24 23 21 19 18
28 29 30 31 31 31 31 30 30 30 29 29 29 29 28 28 27 26 26 25 24 24 24 23 24 26 28 27 25 22 20 21 22 21 21 21 22 23 24 26 28 29 29 29 31 33 32 31 30 31 32 32 33 33 32 30 29 29 30 31 31 30 31 31 32 33 34 35 34 33 33 32 31 31 30 28 27 26 25 24 23 21 20 18 18
28 29 31 31 32 33 33 33 32 31 29 29 29 28 28 28 27 26 25 24 24 24 24 24 25 27 27 25 24 21 20 21 22 22 21 22 23 24 24 26 27 29 30 30 31 33 33 32 30 31 31 31 30 30 30 28 28 28 29 29 30 31 31 32 32 33 34 35 35 34 33 32 31 29 28 27 26 26 25 23 21 19 17 16 16
28 28 30 31 33 34 33 33 33 32 32 32 31 29 29 29 28 26 26 25 25 25 25 25 26 26 25 25 25 23 23 24 25 24 24 24 24 24 25 27 28 29 29 31 33 33 32 31 30 29 29 29 28 29 28 27 26 26 27 27 28 29 30 31 32 33 33 33 33 33 33 31 29 28 27 27 25 23 21 19 18 17 16 15 16
26 26 28 30 31 31 30 30 31 32 32 33 32 32 31 30 28 27 26 25 25 24 24 24 25 25 25 26 25 24 26 28 28 27 26 25 23 24 26 28 29 30 30 31 32 30 28 26 26 25 25 26 26 26 25 23 22 23 24 25 27 29 30 30 30 32 33 33 32 32 31 28 27 27 27 26 24 22 20 19 19 19 18 17 17
23 24 26 28 28 27 27 28 29 29 30 31 31 32 31 29 26 26 26 26 26 24 22 21 22 22 23 25 26 26 29 30 29 28 26 23 22 23 26 27 27 28 29 29 28 26 24 22 21 20 21 21 21 21 20 20 20 21 22 23 24 27 29 31 31 31 32 32 30 29 28 28 28 28 27 26 25 24 23 22 21 20 18 17 16
18 20 21 23 24 25 27 28 28 29 30 30 30 30 30 28 26 25 24 24 23 22 21 21 21 22 24 26 27 27 29 29 28 26 24 20 18 19 21 21 21 23 24 24 23 23 23 21 20 19 18 18 18 19 18 18 19 20 21 23 23 21 22 28 33 34 33 33 33 31 30 31 30 29 27 25 24 24 23 21 19 18 16 15 14
7 11 17 23 26 27 26 26 28 29 28 26 25 24 24 24 24 23 22 21 19 19 19 20 20 20 21 21 22 23 23 23 20 17 14 13 13 14 16 18 20 22 23 22 22 23 23 24 23 23 22 21 20 21 22 22 22 22 23 24 25 21 18 22 32 37 36 35 35 34 31 30 28 27 25 23 22 21 20 18 17 16 15 13 12
18 20 24 26 25 23 19 13 14 20 21 21 22 21 21 21 21 20 19 17 14 11 7 4 3 3 3 3 3 4 5 7 9 13 17 19 20 21 22 24 26 27 27 27 27 27 27 28 28 28 29 29 28 27 29 29 30 30 30 30 32 30 26 25 30 34 34 32 32 31 29 28 26 24 23 21 19 18 17 16 14 13 13 11 11
25 23 22 22 23 22 21 21 16 10 9 10 11 11 12 13 14 14 14 16 17 18 19 19 20 20 21 21 21 20 20 19 19 20 23 24 25 27 29 32 33 34 34 34 35 35 36 36 36 36 36 36 35 35 37 39 38 37 35 35 35 35 32 29 29 30 29 28 27 26 25 24 23 20 18 17 16 15 14 13 12 11 11 11 11
25 24 24 27 29 27 25 28 30 27 24 25 25 25 24 24 24 25 26 27 27 27 26 26 27 28 29 29 28 29 29 27 25 25 26 27 27 29 32 35 37 38 39 39 40 42 44 43 42 43 43 41 38 37 39 41 41 38 35 33 32 31 30 29 28 27 26 24 23 21 20 19 18 16 14 13 12 11 11 11 11 11 10 10 10
27 28 29 31 32 30 28 29 31 29 28 30 31 31 31 31 30 29 30 31 30 29 29 30 31 32 33 33 32 33 33 32 29 28 28 28 28 30 34 39 42 43 42 42 43 45 46 45 44 43 43 41 38 35 35 36 36 34 32 29 27 25 25 24 24 23 21 19 18 17 15 14 13 13 11 11 10 10 10 10 10 9 9 9 8
29 30 31 33 34 32 31 31 31 31 31 31 31 31 32 33 31 30 31 32 32 31 30 31 32 32 33 33 34 34 35 34 31 30 31 31 31 33 37 41 44 44 43 42 43 44 44 42 41 40 38 36 34 32 31 31 31 29 27 24 22 21 20 19 19 18 16 15 15 14 13 13 13 13 12 12 11 10 10 9 9 8 7 7 7
30 31 32 33 34 34 33 33 33 32 33 33 33 32 32 32 31 30 31 32 32 32 32 33 33 33 33 33 34 34 35 34 34 35 35 34 33 35 38 40 41 42 42 41 41 40 39 37 37 36 34 32 31 30 29 28 27 25 23 21 19 18 17 17 17 17 16 15 15 15 14 14 14 13 12 11 10 9 9 8 7 6 6 6 5
Wind_Direction
218 217 205 200 201 211 222 221 217 219 220 220 220 221 224 227 227 225 223 227 230 229 227 229 234 239 242 244 247 246 246 245 241 236 234 234 234 231 230 232 235 239 241 237 231 225 224 223 228 238 240 240 242 245 247 246 242 237 232 223 223 223 218 216 220 183 170 170 173 176 179 179 178 184 188 174 157 131 100 90 95 108 138 132 129
212 206 193 201 209 211 216 219 218 220 222 220 217 215 214 216 221 223 224 227 230 232 231 229 231 235 238 241 245 246 247 249 248 242 239 238 234 227 226 227 230 234 238 239 234 226 226 226 226 234 240 241 243 242 241 240 237 234 227 221 229 233 223 213 208 193 175 173 177 177 179 184 185 186 188 177 156 131 102 98 93 92 129 136 140
193 194 189 202 217 222 225 225 221 221 224 222 219 217 214 210 209 212 217 223 229 235 237 235 234 233 235 238 242 246 248 251 252 248 244 242 236 228 225 226 228 232 240 246 244 235 230 227 224 232 240 242 240 235 232 233 234 233 230 229 238 243 233 218 208 198 185 176 179 178 177 182 188 186 183 173 157 137 115 109 100 98 111 122 139
158 169 182 196 210 221 228 229 227 226 227 227 225 224 220 215 212 212 212 214 223 233 239 240 240 238 237 237 239 242 246 249 251 249 246 244 239 231 226 227 230 235 242 246 246 244 237 226 222 233 240 241 240 234 230 231 233 234 233 232 238 242 232 221 214 208 200 182 175 180 179 180 187 187 179 170 161 153 141 125 106 100 106 122 136
139 146 162 185 200 210 216 221 225 229 233 235 236 235 232 227 222 219 217 216 219 227 234 238 241 241 241 241 240 239 241 244 247 248 247 243 239 234 232 233 235 237 239 238 238 240 236 227 226 234 236 236 238 236 233 234 235 236 237 234 235 237 228 223 222 219 212 193 173 175 179 180 185 187 183 176 169 164 160 142 119 111 121 134 140
128 128 130 147 179 197 202 207 219 229 238 243 246 246 246 244 238 232 228 226 226 228 231 235 238 241 243 245 245 244 242 242 242 244 246 243 238 236 237 240 241 240 237 234 235 236 232 228 231 234 234 234 236 236 234 235 235 236 237 233 232 230 222 223 226 222 217 203 178 170 175 180 184 183 183 186 184 178 172 160 145 134 136 146 152
108 104 100 94 92 153 209 220 231 240 248 254 258 259 258 257 254 249 242 237 236 235 235 236 238 240 242 243 245 248 247 245 242 242 244 245 242 240 240 242 244 243 239 236 235 234 229 226 229 230 228 229 232 232 231 233 234 235 234 227 226 224 218 223 228 218 211 201 181 172 175 180 186 186 185 189 192 192 186 174 164 158 156 160 170
93 87 81 74 66 52 29 299 258 257 258 262 267 268 268 267 265 261 256 249 244 243 241 241 242 243 243 242 244 247 249 248 245 243 245 246 245 244 243 243 243 243 241 238 236 234 229 226 225 224 222 221 223 226 227 229 230 232 229 222 221 219 215 220 223 211 202 195 183 179 180 182 188 190 188 188 191 195 196 190 181 172 168 170 183
88 83 76 70 65 60 55 50 37 324 275 271 272 269 270 273 272 268 265 260 255 252 249 247 246 246 246 244 244 244 246 248 247 246 247 248 247 245 243 242 242 241 240 238 237 235 231 227 225 222 219 218 218 219 222 225 227 227 225 221 218 214 212 218 218 203 194 189 185 181 180 184 190 190 190 195 199 201 199 195 189 177 172 177 193
87 82 77 71 67 65 62 57 52 45 27 342 305 291 287 283 279 275 272 268 265 260 256 252 249 248 248 247 245 243 244 247 248 247 246 248 249 248 245 242 240 239 239 238 238 237 235 232 229 225 222 220 219 219 219 221 223 224 224 221 216 210 209 214 215 204 194 190 187 183 181 187 196 198 201 205 206 206 203 200 193 183 178 180 192
88 83 78 74 69 65 63 59 54 49 41 31 13 341 320 304 294 290 283 277 273 269 263 257 253 251 249 248 246 245 245 247 248 248 247 247 247 247 246 244 241 238 237 237 240 242 240 238 235 232 228 225 222 221 221 222 222 222 222 217 211 210 210 210 208 203 198 195 192 189 189 195 202 206 209 209 207 208 210 207 201 192 186 182 179
88 84 80 75 70 65 62 58 54 51 46 40 32 19 359 336 317 307 297 291 286 279 272 265 260 255 251 248 248 247 248 249 250 251 251 249 247 245 244 244 242 239 237 237 240 244 243 242 241 238 235 232 229 226 225 225 224 222 221 215 209 211 216 215 210 204 201 199 197 196 199 204 208 210 213 214 212 210 209 210 209 203 198 195 182
87 83 77 72 68 64 61 58 54 48 44 42 37 30 21 4 346 330 315 307 299 288 280 273 266 260 253 250 250 251 252 252 252 252 254 253 250 246 243 243 242 241 241 240 240 242 242 242 242 241 239 236 234 233 231 228 225 221 219 217 213 212 216 219 218 214 210 207 204 203 207 211 213 216 221 222 218 210 206 209 211 210 209 208 194
84 79 74 68 63 60 58 55 53 46 41 40 37 31 24 14 4 352 337 325 310 298 289 280 272 264 258 253 253 253 253 253 253 253 254 254 252 249 245 243 242 243 244 244 244 243 242 241 241 243 241 236 234 235 235 231 226 220 217 218 217 215 216 217 218 219 220 218 216 216 217 219 221 225 228 227 223 218 215 214 215 216 215 211 198
82 76 71 66 60 57 54 51 48 43 38 35 31 28 22 15 10 2 351 340 325 309 299 290 281 273 264 258 255 255 254 254 254 253 253 254 253 250 246 243 242 243 244 245 245 246 246 244 243 243 242 239 235 234 235 233 229 223 219 219 219 218 218 219 219 219 221 223 225 227 228 228 230 233 234 233 232 229 228 226 224 222 215 204 195
82 77 72 66 59 57 55 51 46 39 35 31 26 23 18 14 13 8 357 349 337 322 309 298 291 283 274 265 259 258 258 257 255 254 254 254 252 250 247 243 241 242 244 244 245 245 246 245 244 243 242 241 239 235 233 232 229 226 223 221 220 220 221 222 224 225 225 226 228 229 232 236 237 236 238 239 234 229 228 225 220 214 205 193 192
79 73 68 62 56 53 53 52 48 40 32 26 21 19 15 11 11 7 359 352 342 330 319 309 299 290 282 274 265 262 263 262 259 257 257 255 251 248 245 242 240 240 242 244 245 245 246 246 246 245 243 242 241 236 231 227 226 225 225 223 221 221 222 223 226 228 229 230 231 233 235 238 237 234 234 231 227 225 220 212 207 203 197 190 191
75 64 58 52 45 42 41 41 42 39 33 26 20 16 13 10 9 6 359 351 342 335 326 315 306 296 286 279 272 269 270 270 267 263 261 258 253 248 245 241 239 238 240 242 243 245 245 245 245 246 246 247 244 239 231 225 223 223 224 222 221 222 223 222 223 226 228 229 232 234 236 236 232 229 228 223 220 221 220 215 210 202 197 198 200
99 69 49 41 33 29 27 26 26 27 27 25 19 14 11 7 4 2 358 351 344 340 332 318 307 299 291 285 281 275 274 275 271 265 262 258 253 249 245 240 237 237 238 239 240 241 242 243 243 244 247 249 248 243 236 228 224 224 224 220 219 223 225 224 222 224 225 225 228 230 231 231 227 225 226 224 220 221 226 227 218 205 202 207 206
225 226 324 19 16 12 13 12 11 11 11 12 13 11 7 2 359 357 354 350 345 341 336 324 309 301 296 292 287 280 277 276 272 266 262 258 253 250 246 239 236 237 238 237 237 237 238 240 240 241 244 246 247 246 243 234 228 226 224 221 222 226 228 226 224 224 224 225 226 227 227 227 226 224 224 224 222 221 224 225 220 213 211 213 210
258 252 256 275 309 331 347 351 354 357 356 356 360 1 0 358 355 353 352 349 345 340 337 330 316 306 300 295 289 284 279 277 275 270 264 260 256 252 248 243 240 239 238 237 236 235 235 236 238 240 240 241 242 243 244 241 233 228 226 227 227 229 229 228 227 226 225 225 226 225 226 226 225 225 225 225 223 221 220 219 219 220 222 220 214
265 265 263 266 276 291 310 324 332 339 340 340 342 347 352 352 348 347 348 347 344 339 335 330 321 311 306 301 295 290 285 282 280 277 270 264 260 255 252 250 247 242 239 237 236 236 236 236 239 241 240 238 237 239 242 242 236 231 231 231 229 228 228 229 227 224 222 222 222 222 223 224 224 224 226 225 221 220 218 216 216 221 226 228 225
266 269 269 269 274 280 290 302 311 318 323 323 323 329 338 342 341 341 340 340 339 335 331 327 320 311 308 304 298 294 291 288 286 282 277 270 264 259 256 255 251 244 240 240 239 238 238 239 240 241 240 239 237 235 237 239 237 234 234 232 227 225 225 224 223 220 218 217 217 218 220 221 222 224 225 223 219 217 216 213 215 220 225 228 229
268 271 273 273 277 281 286 294 301 307 311 310 308 311 318 325 330 331 331 333 333 329 325 323 316 309 306 303 298 295 293 291 290 287 283 276 269 263 259 257 253 246 242 243 242 240 240 241 240 240 241 242 240 236 233 235 236 236 235 231 226 222 220 219 218 216 212 211 213 216 219 221 222 224 225 223 218 216 214 213 216 221 223 226 229
266 269 272 274 278 284 289 294 298 301 303 302 299 301 302 303 309 315 317 321 322 319 319 317 311 305 303 301 299 297 296 295 293 290 287 281 274 268 264 260 256 250 245 244 244 243 243 244 243 242 243 243 241 236 231 230 234 236 234 230 223 217 216 217 215 211 210 211 213 217 221 223 224 226 227 223 218 216 215 215 218 220 222 225 228
258 262 264 267 273 280 287 294 299 301 300 297 294 294 294 290 288 291 298 305 308 308 307 306 304 301 298 297 297 298 298 297 294 291 288 282 275 270 266 263 260 256 252 250 248 245 244 245 243 242 242 240 238 236 233 230 229 230 229 225 220 216 214 213 210 208 210 213 216 220 224 226 226 225 224 221 219 219 218 218 219 220 222 225 228
251 249 250 254 261 271 281 290 297 299 299 296 293 289 287 284 277 270 272 283 291 294 295 294 293 291 291 292 293 294 295 295 292 291 287 280 274 271 266 261 258 256 254 252 249 244 242 241 239 238 239 238 236 237 236 231 227 225 223 221 218 216 214 213 212 212 213 216 220 223 225 225 223 221 220 220 221 222 222 221 221 221 223 226 229
249 244 242 245 253 264 275 283 289 293 294 294 291 287 283 281 274 267 265 266 271 280 285 285 283 282 283 284 287 290 291 289 288 288 285 281 277 274 268 263 257 251 249 250 248 243 240 236 232 232 233 232 232 232 232 229 225 221 221 219 216 214 214 213 214 217 219 220 222 222 220 220 220 219 219 220 221 221 222 221 221 222 223 224 227
252 248 245 244 247 256 266 273 280 284 286 287 286 284 282 280 276 273 272 267 264 271 277 279 281 283 280 277 278 280 282 283 285 286 287 287 284 278 273 270 264 256 252 252 247 237 228 221 222 223 222 221 223 225 224 221 217 215 216 216 214 212 210 208 209 214 217 218 219 218 216 217 219 218 218 219 220 221 221 220 220 220 221 222 225
253 252 250 248 248 250 255 261 269 275 277 279 280 281 282 281 277 275 274 271 268 271 274 276 281 283 281 279 277 274 274 279 284 284 284 285 285 283 279 276 271 265 261 256 242 220 203 206 215 218 216 214 216 219 218 213 208 205 208 211 211 210 209 208 210 213 215 215 216 216 215 215 216 216 215 216 217 219 220 221 220 220 219 220 224
255 256 255 255 256 255 253 255 261 267 270 273 275 278 282 283 281 277 273 272 272 275 277 278 280 280 279 281 284 283 281 282 283 282 282 282 283 283 281 277 271 264 259 249 228 201 196 207 215 216 214 211 213 216 214 208 203 202 203 206 208 208 208 208 210 213 214 214 216 217 215 214 215 215 215 215 215 216 217 218 218 219 221 221 224
257 258 259 259 260 260 257 257 258 260 263 268 270 271 274 278 281 279 274 272 274 278 280 280 280 280 279 280 283 286 288 288 286 283 283 284 282 281 281 278 272 262 252 239 215 198 200 210 217 217 213 210 212 214 208 201 198 199 200 202 205 207 208 210 210 210 212 214 215 215 214 214 216 216 215 213 212 210 211 213 214 216 219 222 225
261 260 260 260 260 259 258 257 256 255 255 259 263 265 264 264 270 275 275 274 275 277 278 278 280 283 283 282 282 284 288 291 290 286 285 285 281 278 278 277 271 261 245 223 205 199 204 212 218 218 214 212 213 211 205 199 197 196 198 201 206 209 212 213 209 207 211 215 217 216 216 216 216 215 213 210 208 207 207 209 212 213 215 218 222
264 263 263 261 259 258 256 256 256 255 254 254 254 257 258 257 258 263 269 273 275 275 276 276 278 281 283 284 285 285 286 288 289 288 289 288 283 279 279 275 268 257 240 217 203 203 208 215 219 218 216 216 214 208 203 201 199 196 197 202 207 211 213 210 205 206 212 214 215 216 216 215 214 212 209 205 205 206 207 209 210 210 210 214 219
265 265 265 263 260 258 257 258 257 255 254 252 250 251 253 255 256 256 258 261 265 268 271 273 275 278 282 284 286 286 286 287 287 288 288 288 287 285 279 267 255 246 233 217 207 205 210 215 218 218 218 218 215 209 204 202 199 197 198 202 204 207 208 205 205 209 212 212 212 215 216 215 213 211 207 204 202 202 205 207 209 210 211 214 217
265 263 263 261 258 256 256 256 255 253 252 251 250 250 251 251 252 253 254 255 254 256 263 268 272 275 278 281 282 284 284 284 284 285 286 285 287 284 269 250 241 236 226 216 209 207 211 215 217 219 221 221 218 212 206 202 201 200 200 201 202 203 203 204 206 209 210 210 211 214 214 213 210 206 202 202 203 205 206 208 210 211 213 214 216
265 262 260 259 257 255 255 254 252 252 251 250 249 249 248 248 248 250 251 251 251 251 255 262 268 273 274 276 278 280 280 281 283 285 283 280 279 274 258 243 238 235 226 217 211 209 211 213 214 216 219 220 218 213 207 203 202 201 200 201 202 204 205 207 208 207 207 207 208 209 209 209 206 203 202 203 205 206 207 208 208 209 211 212 212
267 265 264 263 261 259 257 256 255 253 250 248 247 245 245 245 245 245 246 247 248 249 251 256 261 264 266 270 275 277 279 281 281 279 274 271 271 267 254 242 238 234 229 223 218 213 211 211 212 213 216 218 217 213 208 204 202 201 200 201 204 207 210 210 207 205 204 205 205 205 206 205 204 205 207 207 206 204 204 205 205 203 203 205 205
270 270 270 269 267 264 261 259 257 255 251 248 245 243 241 242 241 241 243 244 244 246 249 252 256 258 261 267 270 271 273 273 269 265 264 265 266 261 251 241 236 232 228 226 222 216 211 210 209 211 215 217 216 214 209 204 201 202 202 202 202 205 208 208 205 202 202 204 204 204 203 204 206 208 208 206 204 202 200 200 200 199 199 202 204
272 272 272 272 269 266 263 260 257 254 250 247 245 241 239 239 238 237 238 239 241 244 246 248 252 256 258 262 265 265 264 263 261 258 258 257 257 254 247 240 236 231 227 225 222 217 211 208 207 209 213 216 217 216 212 206 202 202 203 202 201 204 208 209 207 203 202 202 202 201 200 202 203 202 201 200 201 198 195 194 197 199 200 200 196
271 270 270 270 267 264 260 256 253 251 248 246 244 241 239 238 236 235 235 236 239 242 244 246 250 254 258 262 264 262 258 258 259 257 254 252 250 248 245 241 237 231 226 224 222 217 210 206 206 208 211 214 216 216 213 207 202 201 202 202 202 206 209 210 208 204 200 198 197 195 194 195 194 193 192 193 192 190 188 188 188 187 184 180 179
268 268 270 271 269 263 258 253 250 248 245 242 241 239 238 237 235 232 232 233 236 239 242 246 249 254 259 263 264 260 257 256 256 254 252 250 247 244 244 242 237 231 226 224 222 218 210 203 202 205 206 207 209 209 206 201 197 196 198 200 201 204 206 207 204 199 195 192 190 188 186 185 186 186 185 182 176 172 171 170 169 169 168 168 170
269 270 271 273 273 269 264 259 254 248 242 238 236 234 232 231 229 228 228 232 235 236 239 244 249 255 260 264 263 261 256 253 250 249 249 249 246 243 242 239 233 226 223 221 219 215 207 196 191 193 197 200 202 202 199 196 193 189 187 188 190 194 198 197 192 188 184 179 176 174 171 170 170 169 168 163 158 156 156 157 157 159 161 162 164
264 265 272 283 289 285 275 265 255 247 240 236 234 230 225 222 222 223 224 226 229 230 234 242 251 257 261 263 261 257 251 246 244 245 246 242 235 230 227 220 210 203 201 200 198 196 190 181 174 173 174 178 183 185 182 180 181 181 180 176 172 173 181 181 176 172 167 161 155 153 152 152 152 151 149 147 146 145 146 148 150 151 153 156 159
297 302 315 320 314 302 288 271 253 242 236 231 227 222 215 210 211 214 216 219 224 227 234 243 250 253 255 254 250 245 241 237 234 228 214 194 178 172 170 167 163 161 161 162 162 162 161 156 152 148 142 140 148 157 158 156 156 159 163 163 157 148 143 145 148 149 148 144 141 140 140 140 140 139 138 139 141 142 143 145 149 151 153 156 159
23 1 345 335 326 322 322 305 253 228 218 215 215 213 208 204 205 206 207 207 205 199 190 176 148 127 117 122 148 176 184 169 150 137 132 130 128 127 127 128 128 128 128 129 132 133 131 130 131 130 125 121 121 127 132 135 134 132 133 134 132 130 125 122 125 130 132 133 133 133 133 132 131 131 132 134 137 140 143 147 152 156 159 164 170
28 6 353 354 359 6 20 37 54 83 118 136 150 158 157 156 155 149 138 125 112 101 91 84 80 77 74 73 75 77 78 82 88 95 102 106 109 110 111 111 110 110 110 111 114 115 114 112 112 112 112 110 106 105 110 115 116 115 115 114 115 117 120 120 118 119 121 123 126 127 127 125 124 125 128 132 136 142 148 152 157 163 169 174 181
28 15 15 24 26 26 35 48 53 55 64 74 80 83 88 92 94 94 93 90 87 85 82 79 77 74 72 70 71 73 75 76 76 79 86 91 95 99 103 103 102 102 102 101 103 105 105 105 104 103 104 105 102 98 100 104 107 107 107 106 106 109 114 118 117 116 115 117 120 121 121 122 124 127 132 138 144 152 159 162 166 171 174 176 180
33 28 30 34 34 34 40 50 55 54 57 65 70 73 76 77 78 80 81 81 79 78 79 78 77 76 75 74 73 74 75 76 75 75 79 82 84 88 92 94 95 95 95 94 95 98 101 102 102 101 101 102 102 100 97 98 100 101 101 101 102 105 108 111 112 112 113 115 117 119 122 126 131 136 142 148 153 159 163 164 167 170 170 169 172
41 39 38 40 40 39 42 50 56 57 57 61 65 68 71 72 71 72 76 77 76 75 75 76 77 78 78 78 78 78 78 77 77 76 77 78 79 81 84 87 89 91 91 90 91 94 96 97 98 98 98 98 98 98 96 95 96 97 97 98 100 102 104 106 107 108 111 116 119 123 128 134 137 141 145 148 151 155 158 159 160 161 161 162 167
47 46 45 46 47 47 47 49 53 55 56 59 60 62 65 69 69 68 70 72 73 72 72 72 74 76 77 78 79 80 80 79 79 78 77 77 77 78 80 83 85 87 88 89 89 90 91 91 92 93 95 96 95 95 95 94 94 95 97 98 100 101 103 106 108 110 115 119 122 125 128 131 134 138 140 142 145 148 148 149 151 151 151 155 158
Height
738 741 744 747 747 743 740 741 743 744 747 750 752 754 756 757 758 760 761 763 765 766 768 769 771 773 775 777 779 780 782 783 785 786 786 787 787 788 788 789 790 791 792 792 792 792 793 793 794 796 799 800 800 800 801 802 803 804 806 808 809 809 809 810 811 810 811 811 812 813 814 816 817 818 819 820 821 821 821 822 822 823 823 824 824
736 738 741 741 738 735 735 739 742 743 744 747 749 750 751 753 755 758 759 761 763 765 766 768 769 771 772 774 776 778 780 781 783 784 785 786 786 786 786 787 788 789 790 790 791 791 791 791 792 794 797 799 799 800 800 801 802 803 805 806 806 807 808 809 809 809 810 810 811 812 814 815 816 818 819 820 821 821 821 822 822 823 823 824 824
735 737 739 739 737 735 737 739 740 741 742 744 745 746 747 748 750 752 755 757 760 762 764 765 767 768 769 771 773 775 777 779 780 782 783 784 784 784 785 785 786 787 787 787 788 789 789 789 790 793 796 797 798 798 799 800 800 802 803 804 805 805 806 807 807 808 808 809 810 811 813 814 816 817 818 820 820 821 821 822 822 823 823 824 824
734 736 737 738 738 738 739 740 740 741 741 742 743 744 745 746 747 748 750 753 756 758 760 763 764 765 766 767 769 771 773 775 777 779 780 781 782 783 783 784 784 785 784 785 786 787 788 788 789 791 794 796 796 797 798 799 799 800 801 802 803 804 805 805 806 806 807 808 809 810 812 813 815 817 818 819 820 820 821 822 822 823 823 823 824
734 734 735 737 737 738 739 740 740 741 741 742 742 743 744 745 747 748 749 750 752 754 756 759 761 763 764 765 766 767 769 771 773 775 777 779 780 781 782 782 782 782 783 783 785 786 786 787 788 790 793 794 794 795 796 797 798 798 799 800 801 802 803 804 805 805 806 807 808 810 811 813 814 816 817 818 819 820 821 821 822 823 823 823 823
734 735 736 736 737 737 737 738 738 739 739 740 741 742 743 744 746 748 749 749 750 752 753 755 758 760 762 764 765 765 766 768 770 772 774 776 777 779 780 781 781 781 781 782 783 784 785 785 787 789 790 791 792 793 794 795 796 796 797 798 799 801 802 803 803 804 805 806 807 808 811 812 814 815 816 817 818 819 820 821 822 822 823 823 823
734 735 736 736 736 736 736 736 736 736 737 738 739 740 741 742 744 746 748 749 750 751 752 753 755 756 759 760 762 764 765 766 767 769 771 773 775 776 778 779 779 780 780 780 781 782 783 784 785 787 788 789 790 791 792 793 793 794 795 796 797 799 800 801 802 803 804 806 807 808 809 811 813 814 815 816 818 819 819 820 821 822 822 822 823
734 735 736 735 735 735 734 735 735 735 735 736 737 738 739 740 741 743 745 747 749 750 751 752 753 754 756 757 759 761 762 763 765 766 768 770 772 773 775 776 778 779 779 779 780 780 781 782 784 785 786 787 788 788 789 790 791 792 793 794 795 796 797 799 800 801 803 804 806 807 808 810 812 813 814 815 816 817 818 819 820 821 821 822 822
735 735 735 736 736 735 735 734 734 734 734 734 735 736 737 738 739 740 742 744 747 748 749 750 752 753 754 756 757 759 760 761 762 764 766 768 769 771 772 774 775 777 778 778 779 780 780 781 782 783 784 784 785 786 787 787 788 789 790 791 792 794 795 796 798 799 800 802 804 805 807 809 810 811 812 813 814 815 817 818 819 820 820 821 821
735 735 736 736 736 736 735 734 734 733 733 733 734 735 736 737 737 738 740 742 744 746 747 748 749 751 752 754 755 757 757 758 759 761 763 765 767 769 770 771 773 774 776 777 778 779 780 780 781 781 782 782 783 783 784 785 785 786 787 788 790 791 792 794 795 796 797 799 801 802 804 806 808 809 810 811 812 814 815 816 817 818 819 820 821
735 735 736 736 737 736 735 735 734 734 733 733 734 734 735 736 736 737 738 739 741 743 744 745 747 748 750 751 753 754 755 756 758 759 760 762 764 766 767 769 770 771 773 774 775 777 778 779 780 780 781 781 781 781 782 782 783 784 785 786 787 788 789 791 792 794 795 797 798 800 801 803 805 806 808 809 811 812 814 815 816 817 818 819 820
735 735 736 736 736 736 735 735 734 734 734 734 734 734 735 735 736 736 736 737 739 740 741 743 744 745 747 748 750 751 752 754 755 757 758 759 761 762 764 765 767 768 769 770 772 773 775 777 778 779 779 779 779 780 780 780 781 782 783 783 784 786 787 788 789 791 792 794 796 797 798 800 802 804 806 807 809 811 812 813 814 815 816 817 818
736 736 736 736 736 736 735 735 735 735 734 734 734 734 735 735 735 735 735 736 736 737 739 740 741 742 743 745 746 747 749 751 752 754 755 757 758 760 761 762 763 765 766 767 768 769 771 773 775 776 777 777 777 778 778 779 780 780 781 782 783 784 785 786 787 789 790 791 792 794 795 797 799 801 803 805 806 808 810 811 812 813 814 815 816
737 737 736 736 735 735 735 735 736 736 735 735 735 735 735 735 735 735 735 734 734 735 736 737 738 739 740 741 743 744 745 747 749 751 752 753 755 757 759 760 760 761 763 764 765 766 767 769 770 771 773 774 775 776 776 777 778 778 779 780 781 782 783 784 786 787 788 789 790 792 793 795 797 799 801 802 804 806 807 809 810 811 812 814 815
737 737 737 736 736 736 736 736 736 736 736 736 735 735 735 735 735 734 734 733 733 734 734 735 736 737 738 739 740 740 742 744 746 747 749 750 752 754 756 757 758 759 760 760 761 763 764 765 766 767 769 770 771 773 774 775 776 776 777 778 779 780 782 783 784 785 786 787 789 790 792 794 796 797 799 801 802 804 805 807 808 809 811 812 813
736 737 736 736 736 736 736 736 737 737 737 737 736 736 736 735 735 734 733 733 733 732 733 734 734 735 736 736 737 737 738 740 742 744 745 747 749 750 752 754 756 756 757 757 758 759 761 762 763 764 765 766 768 769 771 773 774 774 775 776 777 778 780 782 783 785 786 787 788 790 792 793 795 797 798 799 801 802 804 805 807 808 810 811 812
735 736 735 735 735 735 736 736 737 737 737 737 737 737 736 736 735 734 733 732 732 732 732 732 733 733 734 734 734 734 735 737 739 740 742 744 746 747 749 750 752 753 753 754 755 755 756 758 760 762 763 763 764 766 768 770 771 772 773 774 775 776 778 780 782 784 785 786 788 790 791 793 794 796 797 798 799 800 801 803 804 806 807 809 809
734 734 734 735 734 734 735 735 736 736 737 737 737 737 736 736 735 734 733 732 731 731 731 731 731 731 731 731 731 732 732 734 736 738 740 742 743 745 746 747 748 748 749 750 752 752 753 754 756 758 760 761 762 763 764 766 767 769 770 772 773 774 775 777 779 781 783 785 787 789 790 792 793 794 795 796 797 798 799 800 802 804 805 806 807
734 734 734 734 734 734 734 734 735 735 736 736 736 736 736 736 735 734 733 732 731 730 730 730 730 729 729 729 729 730 730 731 734 735 737 738 740 741 743 743 744 744 745 747 748 749 750 751 752 754 756 758 760 761 762 763 763 765 767 769 770 771 772 774 776 778 781 783 785 787 788 790 791 793 794 795 796 797 797 799 800 801 803 804 805
734 734 734 733 733 733 733 733 734 734 734 734 735 735 735 735 734 733 732 731 730 729 728 728 728 727 727 727 728 728 728 729 730 732 734 735 737 738 739 740 740 740 741 743 744 746 747 748 749 750 752 754 757 759 760 761 761 762 764 765 766 767 770 772 774 776 779 781 783 785 787 788 790 791 793 793 794 795 796 797 798 800 801 802 803
733 733 733 732 732 732 732 732 732 733 733 733 733 734 734 734 733 733 731 730 729 728 727 727 726 726 726 726 726 726 726 726 727 729 731 732 734 735 735 735 736 737 738 740 741 743 744 745 745 746 747 749 752 755 757 759 760 760 761 761 763 765 768 770 772 775 777 779 781 783 785 787 788 789 790 791 792 793 794 795 797 798 799 800 801
731 732 731 731 731 731 731 731 731 731 731 731 731 732 732 732 732 731 730 729 728 727 726 725 725 724 723 723 723 723 723 724 724 725 727 728 730 731 731 731 732 734 736 737 737 738 739 740 741 742 743 745 747 750 752 755 758 759 758 759 761 763 765 768 770 773 775 777 779 781 783 784 785 786 788 789 790 791 792 794 795 796 798 799 800
730 730 730 729 729 729 729 729 729 729 729 729 729 730 730 730 730 729 728 727 726 726 725 724 724 722 722 721 720 720 720 721 721 722 723 725 726 726 726 727 729 731 732 732 732 733 734 736 737 739 741 743 743 745 747 751 754 756 757 758 759 760 762 765 767 769 771 774 776 778 779 781 782 783 785 786 787 789 790 792 794 795 796 798 798
728 728 727 727 727 727 726 726 726 726 726 726 726 726 727 728 728 727 727 726 725 724 723 723 722 721 720 719 718 718 718 718 719 719 720 721 721 721 721 722 724 726 727 727 728 730 731 732 734 737 739 740 740 742 743 746 749 753 755 756 756 757 759 761 764 766 768 770 772 774 776 777 779 780 782 784 786 787 789 791 792 793 794 796 797
726 725 725 724 724 723 723 723 723 723 723 723 723 723 724 725 725 725 725 724 724 723 722 721 720 719 718 717 715 715 715 715 716 716 717 717 717 717 717 718 719 721 722 722 724 727 728 729 731 734 735 737 738 739 740 741 745 749 752 754 754 754 756 758 760 763 765 766 768 770 772 774 776 778 780 782 784 785 787 788 789 791 792 793 794
724 723 723 722 721 721 720 719 719 719 720 720 720 720 721 721 722 723 723 722 722 722 721 720 719 718 716 715 714 713 712 713 713 713 714 714 713 713 714 714 716 717 718 719 722 724 725 726 728 730 732 734 735 737 737 738 740 744 748 750 751 751 752 754 756 759 761 763 765 767 769 771 774 776 778 780 781 782 784 785 786 788 789 791 792
723 722 721 720 720 719 717 716 715 715 715 716 716 716 717 718 719 719 720 720 720 720 719 719 718 717 715 714 713 711 710 710 709 710 711 711 710 710 710 711 712 714 715 716 719 721 722 723 725 727 729 730 732 734 734 734 736 739 743 746 746 746 747 749 752 754 757 759 761 763 766 769 771 774 775 777 778 780 781 783 784 785 787 788 790
720 719 719 719 718 717 716 715 713 712 712 712 712 712 713 714 715 715 716 717 717 717 717 717 716 715 714 713 712 710 708 707 706 707 708 709 708 708 708 708 709 710 711 712 715 717 718 720 722 724 725 726 728 730 731 731 731 733 737 740 742 743 744 746 749 751 754 757 759 761 764 766 768 770 772 774 776 778 779 781 782 783 785 786 787
716 716 716 716 715 715 714 713 712 711 710 708 708 708 709 710 711 711 712 713 714 714 714 714 714 713 711 711 710 709 706 704 704 704 706 707 707 706 706 706 707 707 708 709 711 714 716 718 719 720 721 722 724 726 727 727 727 728 731 736 739 741 742 743 746 748 751 754 756 758 761 763 765 767 769 771 773 775 777 779 780 781 782 783 784
711 711 711 711 711 711 711 711 710 709 708 706 705 704 704 706 707 707 708 709 710 710 710 710 710 710 708 707 706 706 704 702 701 701 702 704 704 704 704 704 704 704 706 707 709 711 714 715 716 716 717 718 720 721 722 723 722 723 726 730 734 737 739 740 742 744 747 750 753 755 757 759 762 764 766 768 770 773 774 776 777 778 779 780 781
707 706 706 707 706 707 707 707 707 707 705 704 704 702 701 701 702 703 705 706 706 706 706 705 706 706 705 703 701 701 700 699 699 698 698 700 701 701 701 701 701 702 703 704 706 709 710 711 710 710 712 714 715 716 717 717 718 719 722 726 730 732 734 736 738 741 744 747 750 752 754 756 758 760 762 764 767 769 771 773 774 775 776 777 778
702 701 702 702 702 703 703 703 703 703 702 702 701 701 700 698 697 698 701 702 701 701 701 700 700 701 701 699 697 696 695 696 695 695 695 696 697 698 698 698 699 700 701 701 702 705 706 706 705 705 706 708 709 711 712 712 713 714 717 721 725 728 730 731 734 738 742 744 747 749 750 752 754 756 758 761 763 765 767 769 770 772 773 774 775
697 697 697 698 698 699 699 699 699 699 699 699 698 697 697 697 695 694 695 696 696 696 695 695 695 695 695 695 694 693 692 692 692 691 692 692 692 693 695 695 696 697 697 698 699 700 701 701 700 700 701 702 704 705 707 707 708 710 713 717 720 723 726 728 732 736 740 742 743 745 747 749 751 753 755 757 759 761 764 766 767 769 770 771 772
693 693 693 693 694 694 694 694 694 694 694 695 694 694 694 693 693 692 692 692 691 690 690 690 691 691 690 690 690 689 689 689 688 688 688 689 688 689 691 692 692 693 694 694 695 695 696 697 697 696 697 698 699 700 701 702 704 706 709 713 716 719 722 726 730 734 736 738 740 742 744 746 748 751 753 755 756 758 761 762 764 765 766 768 769
690 689 689 690 690 690 690 690 690 690 690 690 690 690 690 689 689 689 689 689 688 687 686 686 687 687 686 685 685 685 685 686 685 685 685 685 685 686 688 688 688 689 690 691 691 691 691 692 692 692 693 695 696 696 697 698 700 702 705 709 712 716 719 722 725 729 731 733 736 738 740 742 744 747 749 751 753 755 757 759 760 762 763 765 766
686 686 686 686 686 686 686 686 685 685 685 685 685 685 685 685 685 685 685 685 685 683 682 682 683 684 683 681 681 681 682 682 682 682 681 681 682 683 684 683 683 684 685 686 687 687 687 687 687 688 691 693 695 695 694 695 697 699 701 705 708 711 714 717 720 723 726 728 731 733 735 738 740 743 745 747 750 752 754 756 758 759 761 763 764
682 682 681 682 682 682 681 681 681 680 680 680 680 681 681 681 681 681 681 680 680 679 679 679 679 679 678 677 677 678 679 679 679 678 678 678 678 679 679 678 679 680 680 681 682 683 683 683 683 685 688 691 693 693 693 693 695 697 699 702 705 707 710 712 715 718 721 723 726 728 731 733 737 739 742 744 746 749 751 753 756 758 759 761 763
677 677 676 677 677 677 676 676 675 675 675 675 675 676 676 676 676 676 676 675 675 675 674 675 675 675 673 672 674 676 676 676 676 675 674 674 674 674 674 674 675 675 675 676 677 678 679 680 680 682 685 688 690 691 691 691 693 695 697 700 702 705 707 709 711 714 717 720 722 724 727 730 733 736 739 741 744 746 749 751 753 755 757 759 761
672 672 671 672 672 671 671 670 669 669 669 669 669 670 670 670 670 671 670 670 671 670 670 670 670 669 668 669 672 673 673 672 672 671 670 670 669 669 670 670 670 670 670 671 672 674 675 675 676 678 681 684 686 688 689 689 691 693 695 697 699 701 704 706 708 710 713 715 718 721 724 728 731 733 736 738 741 744 746 749 751 753 755 757 759
668 667 667 666 666 665 664 663 662 662 662 662 662 663 663 663 663 664 665 665 665 665 666 666 665 664 665 666 668 669 669 668 667 666 666 665 664 665 665 666 666 666 667 667 668 669 670 671 672 674 677 680 683 685 686 687 688 690 692 694 695 697 699 701 703 706 708 711 714 717 721 724 727 730 733 736 739 741 744 746 748 750 752 754 756
664 663 662 660 659 658 657 655 654 654 654 654 654 655 655 655 656 657 658 659 659 660 660 660 659 660 662 662 663 665 664 663 662 662 661 660 659 660 660 661 662 662 663 663 663 664 666 666 667 670 673 676 679 682 684 685 686 687 689 691 693 694 696 698 700 702 705 708 711 714 717 721 724 727 730 733 736 739 741 743 746 748 750 752 754
660 659 657 655 653 651 649 647 646 645 645 645 645 646 647 648 649 651 652 653 654 655 655 655 655 656 657 658 658 659 659 658 657 657 656 655 655 655 655 656 658 659 659 659 660 662 663 663 664 667 670 674 677 679 680 681 682 684 686 688 690 692 694 696 698 700 702 706 709 712 714 718 721 724 728 731 732 735 738 741 743 746 748 750 752
655 654 652 649 647 644 641 639 638 637 636 635 635 636 638 641 643 645 646 647 649 650 650 650 651 652 652 652 653 653 653 653 652 652 652 651 651 651 651 653 654 655 655 656 658 660 660 660 662 665 668 671 674 675 676 677 678 680 682 685 688 690 692 694 696 698 700 703 706 709 712 715 719 723 726 728 729 732 736 739 742 744 747 749 751
652 650 647 644 640 637 633 630 628 626 625 626 627 628 631 634 637 639 641 643 644 645 646 647 647 648 647 647 647 648 648 647 648 648 648 648 648 647 648 650 651 651 652 653 654 656 657 658 660 663 666 669 670 672 673 675 676 677 679 682 685 690 692 692 692 695 698 700 703 708 712 715 719 722 724 725 728 731 735 739 741 744 746 749 751
649 646 643 639 634 629 624 620 617 616 616 619 621 622 625 628 631 634 637 639 640 642 643 643 644 644 644 643 644 644 644 644 645 645 645 646 646 646 646 648 648 649 649 650 652 653 655 656 658 661 664 667 669 670 671 673 674 676 678 681 683 689 695 694 690 691 696 700 703 708 713 716 719 722 724 726 729 732 736 739 742 744 746 748 750
647 644 641 637 631 625 618 611 608 608 610 613 616 618 621 624 627 630 633 636 638 640 641 641 642 642 642 642 642 643 643 644 644 644 644 645 645 646 647 647 648 648 649 650 652 653 655 657 659 660 663 666 669 671 671 672 674 677 680 683 684 688 695 697 694 694 698 702 706 710 714 718 721 724 726 728 731 734 737 740 742 744 746 748 749
649 646 643 637 631 624 618 612 609 608 610 611 614 617 620 623 626 630 633 635 637 639 640 641 642 643 643 644 644 644 645 647 647 647 647 648 648 649 648 648 649 650 651 652 653 655 657 659 662 663 665 668 672 674 674 674 676 680 684 687 687 689 694 699 700 700 703 706 710 714 717 720 723 726 729 731 734 736 739 741 743 744 745 747 748
651 647 643 639 633 628 624 620 618 617 616 615 617 620 623 625 629 632 634 637 639 641 642 644 645 646 646 647 648 649 650 651 653 654 654 654 654 654 652 651 651 653 655 656 657 657 659 662 665 667 669 673 678 681 679 677 679 683 688 691 693 694 697 700 702 705 708 711 714 717 720 722 725 729 732 734 736 738 740 741 742 743 745 746 747
653 649 645 642 638 635 632 630 628 628 627 625 625 627 629 631 634 637 638 640 643 645 646 648 649 650 651 653 654 655 655 657 659 661 662 662 663 661 657 655 654 656 659 661 661 661 664 668 671 673 674 677 681 684 684 682 683 687 692 695 698 700 702 704 705 708 711 714 717 720 722 725 728 731 733 735 737 739 740 741 742 743 744 745 746
657 653 650 648 646 644 641 639 637 637 637 635 635 636 637 639 641 644 645 646 649 651 652 653 655 656 658 659 661 662 662 664 666 668 668 668 669 668 664 661 661 663 666 668 668 669 672 674 676 676 678 681 684 686 688 688 690 693 696 700 703 705 706 708 709 712 715 717 719 722 724 726 729 731 733 736 737 739 740 741 742 743 743 744 745
661 659 657 655 654 652 650 647 646 645 644 643 643 645 646 647 650 652 652 653 654 656 658 659 660 662 663 665 666 667 668 669 671 671 672 673 674 674 671 670 669 670 672 673 674 675 677 678 679 681 683 686 688 691 692 694 696 699 702 704 706 708 710 711 713 715 718 720 721 723 725 727 729 731 733 735 737 738 739 740 741 742 743 744 745